[[{"header":{"parameterUnit":"m.s-1","parameterCategory":1,"la1":30.2991,"la2":30.254,"lo1":-89.0895,"lo2":-89.0444,"dy":0.0017,"dx":0.0017,"nx":28,"ny":28,"refTime":"2024-04-16T09:00:00:Z","depth":0,"parameterNumber":2,"parameterNumberName":"U-component_of_WINDS"},"data":[0,0,0,0,0,0,0,0,0,0,0,0,0,0,0,0,0,0,0,0,0,0,0,0,0,0,0,0,0,0,0,0,0,0,0,0,0,0,0,0,0,0,0,0,0,0,0,0,0,0,0,0,0,0,0,0,0,0,-3.2917,-3.2917,0,-3.2949,-3.295,-3.295,-3.2889,-3.2887,-3.2885,-3.2883,-3.2922,-3.2925,-3.2928,0,0,0,0,0,0,0,0,0,0,0,0,0,-3.2811,-3.2814,-3.2917,-3.2917,-3.2918,-3.2949,-3.295,-3.295,-3.289,-3.2887,-3.2885,-3.2882,-3.2921,-3.2924,-3.2928,0,0,0,0,0,0,0,0,0,0,0,0,0,-3.2852,-3.2814,-3.2917,-3.2891,-3.2889,-3.2949,-3.295,-3.295,-3.289,-3.2887,-3.2884,-3.2881,-3.292,-3.2924,-3.2928,-3.3017,0,0,-3.2942,-3.2944,0,0,0,0,0,0,0,0,-3.285,-3.2856,-3.2895,-3.2893,-3.2891,-3.2912,-3.2926,-3.2973,-3.2891,-3.289,-3.2883,-3.288,-3.2922,-3.2926,-3.2938,-3.3018,-3.302,-3.2942,-3.2945,-3.2947,-3.2948,0,0,0,0,0,0,0,-3.2847,-3.2854,-3.293,-3.2895,-3.2893,-3.2881,-3.2883,-3.2935,-3.2923,-3.289,-3.2885,-3.289,-3.292,-3.2934,-3.2939,-3.3021,-3.2942,-3.2946,-3.2949,-3.295,-3.3178,-3.3181,0,0,0,0,0,0,-3.2847,-3.2852,-3.2929,-3.2931,-3.2862,-3.2885,-3.2888,-3.2908,-3.2922,-3.2921,-3.2892,-3.2887,-3.2928,-3.2934,-3.294,-3.3044,-3.2947,-3.2951,-3.2953,-3.3174,-3.3179,-3.3182,0,0,0,0,0,0,-3.2844,-3.2854,-3.2928,-3.289,-3.2899,-3.289,-3.2914,-3.2911,-3.2925,-3.2924,-3.2922,-3.2909,-3.2926,-3.2934,-3.2998,-3.3045,-3.2953,-3.2957,-3.317,-3.3176,-3.318,-3.3254,0,0,0,0,0,0,-3.2842,-3.2853,-3.2884,-3.2892,-3.2901,-3.2983,-3.2917,-3.2914,-3.2932,-3.2925,-3.2938,-3.2938,-3.2924,-3.2992,-3.3003,-3.3049,-3.296,-3.3166,-3.3173,-3.3179,-3.3247,-3.3261,-3.3273,0,0,0,0,0,-3.2838,-3.2905,-3.2886,-3.2896,-3.2939,-3.2985,-3.2991,-3.2972,-3.2936,-3.2968,-3.2968,-3.2937,-3.3039,-3.2999,-3.301,-3.3059,-3.3163,-3.3171,-3.3178,-3.3241,-3.3258,-3.3272,0,0,0,0,0,0,-3.2904,-3.2905,-3.2884,-3.2955,-3.297,-3.2975,-3.3014,-3.299,-3.3018,-3.301,-3.2988,-3.2992,-3.3061,-3.3068,-3.3023,-3.3147,-3.3095,-3.3106,-3.3139,-3.3155,-3.3168,-3.3164,-3.2964,0,0,0,0,0,-3.2927,-3.2962,-3.2962,-3.3024,-3.3033,-3.3023,-3.3042,-3.3027,-3.3043,-3.3049,-3.3054,-3.3073,-3.3109,-3.3133,-3.3166,-3.325,-3.3253,-3.3289,-3.3302,-3.3313,-3.3321,-3.3367,-3.3384,-3.3207,-3.3207,-3.3207,0,0,-3.2973,-3.2979,-3.3002,-3.3037,-3.3047,-3.3087,-3.3028,-3.3072,-3.3101,-3.3057,-3.3116,-3.3122,-3.3142,-3.3216,-3.3249,-3.3223,-3.3371,-3.3322,-3.3331,-3.3333,-3.3377,-3.3394,-3.3409,-3.3213,-3.3212,-3.3211,0,0,-3.3078,-3.3086,-3.3138,-3.315,-3.3167,-3.316,-3.3174,-3.3183,-3.3184,-3.3244,-3.3212,-3.3249,-3.3312,-3.3327,-3.3344,-3.3461,-3.3434,-3.3473,-3.3538,-3.3584,-3.3597,-3.361,-3.3651,-3.3667,-3.3482,-3.3482,-3.3482,0,-3.3135,-3.319,-3.3169,-3.3215,-3.3233,-3.3194,-3.3249,-3.3263,-3.329,-3.3305,-3.3275,-3.3355,-3.3365,-3.3444,-3.3473,-3.3487,-3.3503,-3.3469,-3.3597,-3.3609,-3.362,-3.3659,-3.3675,-3.3487,-3.3486,-3.3486,-3.3485,0,-3.3259,-3.3298,-3.334,-3.3365,-3.3389,-3.3439,-3.3429,-3.3455,-3.344,-3.3438,-3.3502,-3.3515,-3.355,-3.3569,-3.3554,-3.3647,-3.363,-3.36,-3.3546,-3.3641,-3.3678,-3.3693,-3.3493,-3.3491,-3.349,-3.3489,0,0,-3.3401,-3.3418,-3.3433,-3.3445,-3.3463,-3.3494,-3.3546,-3.3579,-3.3603,-3.3625,-3.3668,-3.3725,-3.3697,-3.3716,-3.3704,-3.3745,-3.3837,-3.3709,-3.3709,-3.3732,-3.3941,-3.3962,-3.3979,-3.3821,-3.3824,-3.3827,-3.3939,0,-3.3504,-3.3588,-3.3574,-3.3657,-3.3694,-3.3661,-3.3707,-3.3724,-3.3725,-3.376,-3.3763,-3.3802,-3.3763,-3.3775,-3.3813,-3.3817,-3.3879,-3.381,-3.3863,-3.3865,-3.3855,-3.3999,-3.402,-3.4125,-3.3953,-3.3956,-3.3957,0,-3.3634,-3.366,-3.3746,-3.376,-3.3776,-3.3816,-3.3847,-3.388,-3.3902,-3.39,-3.3923,-3.3905,-3.396,-3.3909,-3.3985,-3.3939,-3.3961,-3.3967,-3.3971,-3.3973,-3.3914,-3.4003,-3.4158,-3.4174,-3.398,-3.3978,-3.3977,0,-3.3728,-3.3785,-3.3844,-3.3856,-3.3874,-3.3904,-3.3913,-3.3931,-3.3954,-3.3983,-3.3998,-3.4035,-3.4054,-3.4084,-3.4078,-3.4042,-3.4157,-3.4105,-3.4158,-3.4158,-3.418,-3.4179,-3.434,-3.4199,-3.4199,-3.4199,-3.4198,0,-3.3843,-3.3897,-3.3887,-3.3923,-3.3984,-3.397,-3.4032,-3.4038,-3.4055,-3.4094,-3.407,-3.4108,-3.4099,-3.4138,-3.4134,-3.4199,-3.4208,-3.421,-3.4208,-3.421,-3.421,-3.4222,-3.4214,-3.4203,-3.4202,-3.4201,-3.42,0,-3.3956,-3.3951,-3.4014,-3.4027,-3.4032,-3.4076,-3.4089,-3.4125,-3.4126,-3.4176,-3.4188,-3.419,-3.4235,-3.4233,-3.4285,-3.4283,-3.4362,-3.4352,-3.4353,-3.435,-3.4403,-3.4398,-3.4576,-3.4598,-3.4445,-3.4446,-3.4448,0,-3.4028,-3.4069,-3.4087,-3.4111,-3.4122,-3.4161,-3.4183,-3.4173,-3.4199,-3.4228,-3.4262,-3.4304,-3.4337,-3.4412,-3.442,-3.446,-3.445,-3.451,-3.4456,-3.4458,-3.445,-3.4447,-3.4451,-3.452,-3.4522,-3.4523,-3.4524,0,-3.4157,-3.4153,-3.4186,-3.4219,-3.4247,-3.4273,-3.4297,-3.4319,-3.4312,-3.4343,-3.4387,-3.4413,-3.4466,-3.451,-3.4549,-3.4562,-3.4543,-3.4542,-3.4556,-3.4558,-3.4556,-3.4557,-3.438,-3.4537,-3.4535,-3.4535,-3.4534,-3.4533,-3.425,-3.4286,-3.4304,-3.4343,-3.436,-3.4384,-3.4418,-3.4425,-3.4461,-3.4502,-3.4495,-3.4546,-3.4571,-3.4622,-3.4639,-3.4681,-3.466,-3.4681,-3.4686,-3.469,-3.4696,-3.4552,-3.4689,-3.4688,-3.4688,-3.4688,-3.4687,0,-3.4377,-3.4388,-3.4424,-3.4457,-3.4489,-3.4468,-3.4495,-3.4523,-3.4567,-3.4591,-3.4624,-3.4678,-3.4721,-3.4735,-3.4777,-3.4809,-3.4801,-3.482,-3.4816,-3.482,-3.4712,-3.4695,-3.4825,-3.4825,-3.4825,-3.4825,-3.4825,-3.4825,-3.4446,-3.4504,-3.4504,-3.4573,-3.4585,-3.4633,-3.465,-3.4673,-3.4692,-3.4752,-3.4787,-3.4796,-3.4817,-3.4861,-3.4901,-3.4905,-3.4921,-3.4943,-3.4943,-3.4841,-3.4827,-3.4814,-3.4797,-3.4947,-3.4948,-3.5047,-3.5048,-3.5049]},{"header":{"parameterUnit":"m.s-1","parameterCategory":1,"la1":30.2991,"la2":30.254,"lo1":-89.0895,"lo2":-89.0444,"dy":0.0017,"dx":0.0017,"nx":28,"ny":28,"refTime":"2024-04-16T09:00:00:Z","depth":0,"parameterNumber":3,"parameterNumberName":"V-component_of_WINDS"},"data":[0,0,0,0,0,0,0,0,0,0,0,0,0,0,0,0,0,0,0,0,0,0,0,0,0,0,0,0,0,0,0,0,0,0,0,0,0,0,0,0,0,0,0,0,0,0,0,0,0,0,0,0,0,0,0,0,0,0,3.0008,3.0009,0,3.0087,3.0088,3.0089,3.0115,3.0115,3.0114,3.0114,3.0192,3.0194,3.0196,0,0,0,0,0,0,0,0,0,0,0,0,0,2.988,2.9882,3.0008,3.0009,3.001,3.0087,3.0088,3.0089,3.0115,3.0115,3.0114,3.0114,3.0191,3.0194,3.0196,0,0,0,0,0,0,0,0,0,0,0,0,0,2.9945,2.9883,3.0008,3.0033,3.0036,3.0086,3.0088,3.0089,3.0115,3.0115,3.0114,3.0114,3.019,3.0193,3.0197,3.0228,0,0,3.0208,3.0209,0,0,0,0,0,0,0,0,2.9941,2.9949,3.0028,3.0031,3.0034,3.0091,3.0071,3.0136,3.0115,3.0085,3.0114,3.0113,3.0158,3.0164,3.018,3.0232,3.0235,3.0208,3.021,3.0212,3.0213,0,0,0,0,0,0,0,2.9936,2.9946,3.0039,3.0029,3.0033,3.0039,3.0048,3.0083,3.0123,3.0087,3.0089,3.0099,3.016,3.0177,3.0182,3.0236,3.0208,3.0211,3.0213,3.0215,3.032,3.0321,0,0,0,0,0,0,2.9928,2.9942,3.0037,3.0042,2.9986,3.0042,3.0052,3.0073,3.0123,3.013,3.0099,3.01,3.0171,3.0178,3.0185,3.0227,3.0212,3.0215,3.0217,3.0319,3.032,3.0321,0,0,0,0,0,0,2.9925,2.9936,3.0034,2.9993,3.0005,3.0045,3.0068,3.0075,3.0092,3.0132,3.0139,3.0109,3.0171,3.018,3.0218,3.023,3.0217,3.022,3.0319,3.032,3.0321,3.0309,0,0,0,0,0,0,2.9921,2.9935,2.9947,2.9993,3.0007,3.0066,3.0069,3.0077,3.0098,3.0099,3.0143,3.0149,3.0171,3.0213,3.0222,3.0234,3.0223,3.0318,3.0319,3.032,3.0309,3.031,3.031,0,0,0,0,0,2.9917,2.994,2.9948,2.9959,3.0024,3.0066,3.0075,3.01,3.0099,3.0112,3.0138,3.0148,3.0227,3.0216,3.0227,3.024,3.0317,3.0319,3.032,3.0308,3.0309,3.031,0,0,0,0,0,0,2.9894,2.9946,2.9956,2.9994,3.0026,3.0071,3.0088,3.01,3.0132,3.0132,3.0161,3.017,3.0207,3.0227,3.0215,3.0275,3.0273,3.0276,3.026,3.0261,3.0262,3.0257,3.0225,0,0,0,0,0,2.9893,2.9924,2.9968,2.9998,3.0013,3.0048,3.0067,3.0084,3.0117,3.013,3.0159,3.019,3.0223,3.0243,3.0274,3.0312,3.0322,3.0326,3.0327,3.0328,3.0331,3.0354,3.0357,3.0326,3.0326,3.0326,0,0,2.9892,2.9925,2.9942,2.9994,3.002,3.0051,3.0059,3.009,3.0114,3.0135,3.0174,3.0196,3.0233,3.0271,3.0289,3.0289,3.0342,3.033,3.033,3.0333,3.0356,3.0359,3.0361,3.0327,3.0327,3.0327,0,0,2.9907,2.9934,2.9963,2.999,3.0031,3.0054,3.0061,3.0104,3.012,3.016,3.0177,3.0205,3.0259,3.0285,3.0306,3.0332,3.0344,3.0342,3.0346,3.0369,3.0371,3.0373,3.0384,3.0388,3.0344,3.0344,3.0344,0,2.9901,2.9949,2.9976,3.0008,3.0031,3.0053,3.0083,3.0107,3.0155,3.0171,3.017,3.024,3.0266,3.0312,3.0319,3.0334,3.0344,3.0337,3.0369,3.0371,3.0374,3.0385,3.0388,3.0344,3.0344,3.0344,3.0344,0,2.994,2.9973,2.9991,3.0039,3.0064,3.0094,3.0127,3.0148,3.0163,3.0187,3.0227,3.026,3.0299,3.0311,3.0325,3.036,3.0359,3.0363,3.0362,3.0376,3.0387,3.0391,3.0343,3.0344,3.0344,3.0344,0,0,2.9941,3.0006,3.0012,3.0035,3.0082,3.0108,3.014,3.018,3.0199,3.0231,3.0259,3.0306,3.0311,3.0334,3.0352,3.0371,3.0392,3.0373,3.0374,3.0377,3.0433,3.0431,3.0435,3.04,3.0401,3.0401,3.0431,0,2.9963,3.0022,3.0049,3.0096,3.0127,3.015,3.0178,3.021,3.0232,3.0262,3.0287,3.032,3.0324,3.0338,3.0358,3.0385,3.0404,3.0383,3.0426,3.0427,3.0417,3.044,3.0437,3.0463,3.0435,3.0436,3.0436,0,2.9995,3.003,3.0081,3.0127,3.0141,3.0166,3.0206,3.0234,3.0271,3.0286,3.0313,3.0331,3.0365,3.0362,3.041,3.0396,3.0415,3.0431,3.0433,3.0438,3.0433,3.0447,3.0472,3.0476,3.0443,3.0442,3.0442,0,2.9993,3.0053,3.0091,3.011,3.0163,3.0181,3.0204,3.024,3.0263,3.0298,3.0314,3.0351,3.0372,3.04,3.0428,3.0422,3.0474,3.0472,3.0488,3.0488,3.0499,3.0498,3.0528,3.0509,3.0509,3.0509,3.0509,0,3.0015,3.0045,3.0091,3.0115,3.015,3.0181,3.0214,3.0239,3.0272,3.0301,3.0322,3.0348,3.0382,3.0414,3.0435,3.0473,3.0482,3.0495,3.0501,3.0494,3.0492,3.0507,3.0507,3.051,3.051,3.051,3.051,0,3.0018,3.005,3.0094,3.0142,3.0155,3.0179,3.022,3.0244,3.0268,3.0305,3.0315,3.0353,3.0391,3.0422,3.047,3.0485,3.0525,3.053,3.0513,3.0516,3.0531,3.053,3.0572,3.058,3.0555,3.0556,3.0556,0,3.003,3.0055,3.0106,3.0128,3.0151,3.0185,3.0209,3.0241,3.0265,3.031,3.0329,3.0369,3.0403,3.0462,3.0494,3.0532,3.0539,3.0552,3.0545,3.0538,3.0541,3.054,3.0543,3.0552,3.0552,3.0553,3.0553,0,3.0049,3.0064,3.0099,3.014,3.0169,3.0202,3.0235,3.0252,3.0289,3.0316,3.0356,3.0382,3.0433,3.0473,3.0514,3.0538,3.0552,3.0555,3.0561,3.0554,3.0544,3.0551,3.0516,3.0554,3.0553,3.0553,3.0553,3.0553,3.0058,3.0081,3.0122,3.016,3.019,3.0221,3.0247,3.0276,3.031,3.0355,3.0371,3.0412,3.0451,3.0508,3.0532,3.0565,3.0566,3.0574,3.0576,3.0578,3.0578,3.0538,3.0572,3.0572,3.0572,3.0573,3.0573,0,3.0079,3.0107,3.0142,3.0189,3.022,3.0232,3.027,3.0295,3.0332,3.0366,3.04,3.0447,3.0486,3.0521,3.0562,3.0582,3.0589,3.0591,3.0591,3.0596,3.0574,3.0566,3.0585,3.0585,3.0585,3.0585,3.0585,3.0585,3.0093,3.0134,3.0155,3.0211,3.0238,3.028,3.0301,3.0331,3.0359,3.0411,3.0444,3.0468,3.0503,3.0547,3.0584,3.0593,3.0608,3.0608,3.062,3.0599,3.0597,3.0596,3.0588,3.0611,3.0611,3.0639,3.0639,3.0639]}]]